Location: Grand Mazuras
(45.9128°N, 1.7636°E)
Time: 04:32:44
(UTC+00:00)

Cosmos 1076 Rocket - Pass Details

Date: 18 April 2021
Orbit: 589 x 613 km, 82.5° (Epoch: 10 May)

Event Time Altitude Azimuth Distance (km) Brightness Sun altitude
Rises 20:41:35 0° 348° (NNW) 2,883 7.8 -18.7°
Reaches altitude 10° 20:43:49 10° 346° (NNW) 1,970 6.9 -19.0°
Maximum altitude 20:48:09 69° 265° (W) 651 3.7 -19.6°
Enters shadow 20:50:08 31° 189° (S) 1,066 4.5 -19.9°
